Change the Weather History Date:

Wednesday, November 7, 2012

  Actual Average Record
Temperature  
Mean Temperature 78 °F -  
Max Temperature 87 °F 87 °F 91 °F (2014)
Min Temperature 70 °F 72 °F 68 °F (2006)
Cooling Degree Days 14    
Growing Degree Days 28 (Base 50)    
Moisture  
Dew Point 65 °F    
Average Humidity 62    
Maximum Humidity 83    
Minimum Humidity 34    
Precipitation  
Precipitation 0.00 in 0.16 in - ()
Sea Level Pressure  
Sea Level Pressure 29.88 in    
Wind  
Wind Speed 9 mph ()    
Max Wind Speed 17 mph    
Max Gust Speed -    
Visibility 7.2 miles    
Events      
Averages and records for this station are not official NWS values.
T = Trace of Precipitation, MM = Missing Value Source: Averaged Metar Reports

Daily Weather History Graph

Daily Weather History Graph

Search for Another Location

Airport or City:

Trip Planner

Search our weather history database for the weather conditions in past years. The results will help you decide how hot, cold, wet, or windy it might be!

Date:

Astronomy

Nov. 07, 2012 Rise Set
Actual Time 5:36 AM AEST 6:24 PM AEST
Civil Twilight 5:13 AM AEST 6:47 PM AEST
Nautical Twilight 4:47 AM AEST 7:14 PM AEST
Astronomical Twilight 4:20 AM AEST 7:41 PM AEST
Moon 12:11 AM AEST (11/7) 12:02 PM AEST (11/7)
Length of Visible Light 13h 33m
Length of Day
12h 48m
Waning Gibbous, 49% of the Moon is Illuminated
Nov 7
Waning Gibbous
Nov 14
New
Nov 21
First Quarter
Nov 29
Full
Dec 7
Last Quarter

Hourly Weather History & Observations

Time (AEST) Temp. Heat Index Dew Point Humidity Pressure Visibility Wind Dir Wind Speed Gust Speed Precip Events Conditions
12:00 AM 75 °F - 66 °F 66% 29.91 in - SSE 8.1 mph - -   Overcast
12:00 AM 75.2 °F - 66.2 °F 73% 29.92 in 6.2 mi SSE 8.1 mph - N/A   Scattered Clouds
12:30 AM 73.4 °F - 66.2 °F 78% 29.89 in 6.2 mi South 6.9 mph - N/A   Partly Cloudy
1:00 AM 74 °F - 66 °F 71% 29.89 in - South 6.9 mph - -  
1:00 AM 73.4 °F - 66.2 °F 78% 29.89 in 6.2 mi South 6.9 mph - N/A   Partly Cloudy
1:30 AM 73.4 °F - 66.2 °F 78% 29.86 in 6.2 mi SSE 6.9 mph - N/A   Partly Cloudy
2:00 AM 73.4 °F - 66.2 °F 78% 29.86 in 6.2 mi South 9.2 mph - N/A   Partly Cloudy
2:30 AM 75.2 °F - 66.2 °F 73% 29.86 in 6.2 mi South 9.2 mph - N/A   Partly Cloudy
3:00 AM 74 °F - 67 °F 73% 29.87 in - South 8.1 mph - -  
3:00 AM 73.4 °F - 66.2 °F 78% 29.86 in 6.2 mi South 8.1 mph - N/A   Partly Cloudy
3:30 AM 73.4 °F - 66.2 °F 78% 29.86 in 6.2 mi South 8.1 mph - N/A   Partly Cloudy
4:00 AM 74 °F - 66 °F 71% 29.88 in - South 9.2 mph - -  
4:00 AM 73.4 °F - 66.2 °F 78% 29.86 in 6.2 mi South 9.2 mph - N/A   Partly Cloudy
4:30 AM 73.4 °F - 66.2 °F 78% 29.86 in 6.2 mi South 9.2 mph - N/A   Partly Cloudy
5:00 AM 73.4 °F - 66.2 °F 78% 29.89 in 6.2 mi South 9.2 mph - N/A   Partly Cloudy
5:30 AM 71.6 °F - 66.2 °F 83% 29.89 in 6.2 mi SSE 9.2 mph - N/A   Partly Cloudy
6:00 AM 73 °F - 66 °F 73% 29.91 in 19 mi South 9.2 mph - -   Partly Cloudy
6:00 AM 73.4 °F - 66.2 °F 78% 29.89 in 6.2 mi South 9.2 mph - N/A   Partly Cloudy
6:30 AM 73.4 °F - 66.2 °F 78% 29.92 in 6.2 mi South 9.2 mph - N/A   Partly Cloudy
7:00 AM 75 °F - 66 °F 68% 29.93 in - SSE 11.5 mph - -  
7:00 AM 75.2 °F - 66.2 °F 73% 29.92 in 6.2 mi SSE 11.5 mph - N/A   Partly Cloudy
7:30 AM 77.0 °F - 66.2 °F 69% 29.92 in 6.2 mi SSE 9.2 mph - N/A   Partly Cloudy
8:00 AM 77.0 °F - 64.4 °F 65% 29.92 in 6.2 mi South 11.5 mph - N/A   Partly Cloudy
8:30 AM 80.6 °F 82.7 °F 66.2 °F 61% 29.92 in 6.2 mi South 10.4 mph - N/A   Partly Cloudy
9:00 AM 83 °F - 66 °F 47% 29.94 in 19 mi SE 11.5 mph - -   Partly Cloudy
9:00 AM 82.4 °F 84.6 °F 66.2 °F 58% 29.92 in 6.2 mi SE 11.5 mph - N/A   Scattered Clouds
9:30 AM 82.4 °F 83.9 °F 64.4 °F 54% 29.92 in 6.2 mi SE 11.5 mph - N/A   Scattered Clouds
10:00 AM 84 °F - 63 °F 39% 29.93 in - ESE 13.8 mph - -  
10:00 AM 84.2 °F 85.0 °F 62.6 °F 48% 29.92 in 6.2 mi ESE 13.8 mph - N/A   Partly Cloudy
10:30 AM 86.0 °F 86.6 °F 62.6 °F 45% 29.92 in 6.2 mi ESE 16.1 mph - N/A   Partly Cloudy
11:00 AM 86.0 °F 86.6 °F 62.6 °F 45% 29.89 in 6.2 mi ESE 13.8 mph - N/A   Partly Cloudy
11:30 AM 86.0 °F 86.1 °F 60.8 °F 43% 29.89 in 6.2 mi ESE 16.1 mph - N/A   Partly Cloudy
12:00 PM 87 °F - 63 °F 34% 29.89 in 19 mi ESE 15.0 mph - -   Partly Cloudy
12:00 PM 87.8 °F 88.5 °F 62.6 °F 43% 29.89 in 6.2 mi ESE 15.0 mph - N/A   Partly Cloudy
12:30 PM 86.0 °F 87.3 °F 64.4 °F 48% 29.89 in 6.2 mi East 15.0 mph - N/A   Partly Cloudy
1:00 PM 86 °F - 64 °F 37% 29.87 in - East 13.8 mph - -  
1:00 PM 86.0 °F 87.3 °F 64.4 °F 48% 29.86 in 6.2 mi East 13.8 mph - N/A   Partly Cloudy
1:30 PM 86.0 °F 86.6 °F 62.6 °F 45% 29.83 in 6.2 mi East 15.0 mph - N/A   Partly Cloudy
2:00 PM 86.0 °F 87.3 °F 64.4 °F 48% 29.83 in 6.2 mi East 17.3 mph - N/A   Partly Cloudy
2:30 PM 84.2 °F 85.0 °F 62.6 °F 48% 29.83 in 6.2 mi East 15.0 mph - N/A   Partly Cloudy
3:00 PM 84 °F - 60 °F 35% 29.83 in 19 mi East 15.0 mph - -   Partly Cloudy
3:00 PM 84.2 °F 84.4 °F 60.8 °F 45% 29.83 in 6.2 mi East 15.0 mph - N/A   Partly Cloudy
3:30 PM 84.2 °F 85.6 °F 64.4 °F 51% 29.83 in 6.2 mi East 13.8 mph - N/A   Partly Cloudy
4:00 PM 83 °F - 65 °F 44% 29.83 in - East 12.7 mph - -  
4:00 PM 84.2 °F 85.6 °F 64.4 °F 51% 29.80 in 6.2 mi East 12.7 mph - N/A   Overcast
4:30 PM 82.4 °F 83.9 °F 64.4 °F 54% 29.80 in 6.2 mi ESE 12.7 mph - N/A   Partly Cloudy
5:00 PM 82.4 °F 83.4 °F 62.6 °F 51% 29.80 in 6.2 mi ESE 10.4 mph - N/A   Scattered Clouds
5:30 PM 80.6 °F 82.7 °F 66.2 °F 61% 29.83 in 6.2 mi ESE 12.7 mph - N/A   Scattered Clouds
6:00 PM 79 °F - 66 °F 56% 29.84 in - ESE 11.5 mph - -  
6:00 PM 78.8 °F - 66.2 °F 65% 29.83 in 6.2 mi ESE 11.5 mph - N/A   Scattered Clouds
6:30 PM 78.8 °F - 66.2 °F 65% 29.83 in 6.2 mi SSE 10.4 mph - N/A   Scattered Clouds
7:00 PM 77 °F - 66 °F 60% 29.86 in - SSE 8.1 mph - -  
7:00 PM 77.0 °F - 66.2 °F 69% 29.86 in 6.2 mi SSE 8.1 mph - N/A   Scattered Clouds
7:30 PM 77.0 °F - 66.2 °F 69% 29.86 in 6.2 mi SSE 6.9 mph - N/A   Scattered Clouds
8:00 PM 75.2 °F - 66.2 °F 73% 29.86 in 6.2 mi South 6.9 mph - N/A   Scattered Clouds
8:30 PM 75.2 °F - 66.2 °F 73% 29.86 in 6.2 mi SSE 5.8 mph - N/A   Scattered Clouds
9:00 PM 75 °F - 66 °F 65% 29.88 in - South 5.8 mph - -  
9:00 PM 75.2 °F - 66.2 °F 73% 29.86 in 6.2 mi South 5.8 mph - N/A   Scattered Clouds
9:30 PM 75.2 °F - 66.2 °F 73% 29.89 in 6.2 mi South 5.8 mph - N/A   Scattered Clouds
10:00 PM 74 °F - 66 °F 68% 29.90 in - South 4.6 mph - -  
10:00 PM 75.2 °F - 66.2 °F 73% 29.89 in 6.2 mi South 4.6 mph - N/A   Scattered Clouds
10:30 PM 75.2 °F - 66.2 °F 73% 29.89 in 6.2 mi South 5.8 mph - N/A   Scattered Clouds
11:00 PM 75.2 °F - 66.2 °F 73% 29.89 in 6.2 mi South 5.8 mph - N/A   Scattered Clouds